TimeCST,TemperatureF,Dew PointF,Humidity,Sea Level PressureIn,VisibilityMPH,Wind Direction,Wind SpeedMPH,Gust SpeedMPH,PrecipitationIn,Events,Conditions,WindDirDegrees,DateUTC
12:53 AM,51.1,46.9,86,30.28,10.0,North,8.1,-,N/A,,Overcast,350,2012-11-13 06:53:00
1:26 AM,51.8,46.4,82,30.28,10.0,North,9.2,16.1,N/A,,Overcast,10,2012-11-13 07:26:00
1:53 AM,50.0,45.0,83,30.27,10.0,North,6.9,-,N/A,,Overcast,360,2012-11-13 07:53:00
2:53 AM,48.9,43.0,80,30.29,10.0,North,9.2,19.6,N/A,,Overcast,350,2012-11-13 08:53:00
3:53 AM,48.0,41.0,77,30.29,10.0,North,8.1,-,N/A,,Overcast,360,2012-11-13 09:53:00
4:53 AM,45.0,39.0,80,30.30,10.0,North,8.1,-,N/A,,Overcast,360,2012-11-13 10:53:00
5:53 AM,43.0,37.0,80,30.31,10.0,North,6.9,-,N/A,,Clear,350,2012-11-13 11:53:00
6:53 AM,42.1,36.0,79,30.34,10.0,North,11.5,17.3,N/A,,Clear,360,2012-11-13 12:53:00
7:53 AM,45.0,34.0,65,30.35,10.0,North,13.8,18.4,N/A,,Clear,10,2012-11-13 13:53:00
8:53 AM,48.9,34.0,56,30.35,10.0,North,10.4,17.3,N/A,,Clear,360,2012-11-13 14:53:00
9:53 AM,54.0,34.0,47,30.34,10.0,Variable,6.9,16.1,N/A,,Clear,0,2012-11-13 15:53:00
10:53 AM,55.9,33.1,42,30.32,10.0,NNE,10.4,17.3,N/A,,Clear,20,2012-11-13 16:53:00
11:53 AM,59.0,30.9,35,30.28,10.0,North,11.5,18.4,N/A,,Clear,10,2012-11-13 17:53:00
12:53 PM,63.0,32.0,31,30.25,10.0,North,9.2,16.1,N/A,,Clear,360,2012-11-13 18:53:00
1:53 PM,64.0,30.9,29,30.23,10.0,NNE,9.2,20.7,N/A,,Clear,20,2012-11-13 19:53:00
2:53 PM,63.0,33.1,33,30.22,10.0,North,8.1,-,N/A,,Clear,350,2012-11-13 20:53:00
3:53 PM,61.0,34.0,36,30.23,10.0,North,8.1,-,N/A,,Clear,10,2012-11-13 21:53:00
4:53 PM,54.0,35.1,49,30.24,10.0,North,3.5,-,N/A,,Clear,360,2012-11-13 22:53:00
5:53 PM,52.0,34.0,50,30.25,10.0,North,3.5,-,N/A,,Clear,350,2012-11-13 23:53:00
6:53 PM,50.0,34.0,54,30.27,10.0,North,4.6,-,N/A,,Clear,360,2012-11-14 00:53:00
7:53 PM,48.0,34.0,58,30.28,10.0,North,4.6,-,N/A,,Clear,360,2012-11-14 01:53:00
8:53 PM,46.0,34.0,63,30.28,10.0,North,4.6,-,N/A,,Clear,360,2012-11-14 02:53:00
9:53 PM,46.0,33.1,61,30.27,10.0,North,3.5,-,N/A,,Clear,360,2012-11-14 03:53:00
10:53 PM,45.0,32.0,60,30.25,10.0,North,4.6,-,N/A,,Clear,10,2012-11-14 04:53:00
11:53 PM,44.1,32.0,63,30.24,10.0,North,3.5,-,N/A,,Clear,360,2012-11-14 05:53:00